EW0150 Weather Reports


time (UTC)temp
C
wind
direction
speed
KPH
gust
KPH
rain 1hr
cm
rain 24hr
cm
rain mn
cm
humidity
%
barometer
mb
20260510221006 13 115 4.8 12.9 0.00 0.00 0.00 60 1008.8
20260510220012 13 108 6.4 11.3 0.00 0.00 0.00 59 1008.7
20260510215004 13 95 6.4 17.7 0.00 0.00 0.00 58 1008.8
20260510213007 13 126 8.0 16.1 0.00 0.00 0.00 58 1008.9
20260510212007 13 116 6.4 16.1 0.00 0.00 0.00 58 1009.0
20260510211006 13 112 6.4 14.5 0.00 0.00 0.00 57 1009.0
20260510210008 14 116 6.4 16.1 0.00 0.00 0.00 56 1009.2
20260510205004 14 92 9.7 19.3 0.00 0.00 0.00 56 1009.3
20260510204004 14 105 8.0 14.5 0.00 0.00 0.00 56 1009.4
20260510203005 15 111 6.4 14.5 0.00 0.00 0.00 56 1009.5
20260510202004 15 101 8.0 14.5 0.00 0.00 0.00 56 1009.5
20260510201004 15 133 8.0 14.5 0.00 0.00 0.00 56 1009.6
20260510200008 15 115 8.0 16.1 0.00 0.00 0.00 56 1009.6
20260510195005 15 108 8.0 16.1 0.00 0.00 0.00 57 1009.7
20260510194007 15 113 6.4 14.5 0.00 0.00 0.00 58 1009.8
20260510193007 15 109 6.4 11.3 0.00 0.00 0.00 58 1009.8
20260510191005 16 121 4.8 12.9 0.00 0.00 0.00 58 1010.0
20260510190007 16 134 6.4 11.3 0.00 0.00 0.00 58 1009.9
20260510184004 16 128 6.4 8.0 0.00 0.00 0.00 57 1009.9
20260510182004 17 125 6.4 12.9 0.00 0.00 0.00 56 1009.8
20260510181007 17 136 4.8 8.0 0.00 0.00 0.00 55 1009.8
20260510174004 18 137 4.8 11.3 0.00 0.00 0.00 50 1009.9
20260510173005 18 132 6.4 11.3 0.00 0.00 0.00 49 1009.9
20260510172004 19 132 4.8 11.3 0.00 0.00 0.00 49 1009.9
20260510171006 19 140 6.4 9.7 0.00 0.00 0.00 48 1009.9
20260510170009 20 140 6.4 11.3 0.00 0.00 0.00 48 1009.9
20260510165004 20 142 4.8 11.3 0.00 0.00 0.00 46 1010.1
20260510164007 20 113 6.4 12.9 0.00 0.00 0.00 45 1010.2
20260510163009 20 121 6.4 11.3 0.00 0.00 0.00 46 1010.2
20260510162004 20 88 4.8 11.3 0.00 0.00 0.00 45 1010.3
20260510161006 20 107 8.0 14.5 0.00 0.00 0.00 45 1010.4
20260510155007 20 178 4.8 11.3 0.00 0.00 0.00 42 1010.6
20260510154029 20 173 4.8 9.7 0.00 0.00 0.00 43 1010.7
20260510153004 21 163 6.4 14.5 0.00 0.00 0.00 42 1011.0
20260510152003 21 192 8.0 16.1 0.00 0.00 0.00 42 1011.1
20260510151006 21 248 6.4 14.5 0.00 0.00 0.00 42 1011.2
20260510150009 21 145 9.7 17.7 0.00 0.00 0.00 40 1011.2
20260510145003 20 153 8.0 14.5 0.00 0.00 0.00 41 1011.5
20260510144004 21 262 6.4 12.9 0.00 0.00 0.00 44 1011.5
20260510142005 20 271 1.6 4.8 0.00 0.00 0.00 44 1011.7
20260510141004 20 59 3.2 8.0 0.00 0.00 0.00 43 1011.7
20260510140006 20 65 6.4 12.9 0.00 0.00 0.00 45 1011.9
20260510135008 20 230 6.4 16.1 0.00 0.00 0.00 48 1012.1
20260510133005 20 157 6.4 11.3 0.00 0.00 0.00 47 1012.5
20260510131006 20 295 6.4 12.9 0.00 0.00 0.00 47 1012.6
20260510130008 20 157 3.2 11.3 0.00 0.00 0.00 47 1012.8
20260510124005 20 294 8.0 17.7 0.00 0.00 0.00 47 1013.1
20260510123006 19 286 6.4 17.7 0.00 0.00 0.00 46 1013.1
20260510122006 19 136 9.7 14.5 0.00 0.00 0.00 46 1013.1
20260510121005 19 192 6.4 14.5 0.00 0.00 0.00 48 1013.2
20260510120008 18 319 4.8 11.3 0.00 0.00 0.00 45 1013.4
20260510115005 18 166 8.0 11.3 0.00 0.00 0.00 49 1013.5
20260510114005 19 130 9.7 17.7 0.00 0.00 0.00 50 1013.7
20260510113006 19 131 8.0 16.1 0.00 0.00 0.00 49 1013.7
20260510110007 18 142 11.3 24.1 0.00 0.00 0.00 50 1014.0
20260510105005 17 143 6.4 16.1 0.00 0.00 0.00 53 1014.2
20260510104005 17 59 9.7 19.3 0.00 0.00 0.00 54 1014.3
20260510102006 17 184 8.0 17.7 0.00 0.00 0.00 53 1014.8
20260510100007 16 67 9.7 17.7 0.00 0.00 0.00 56 1015.2
20260510094005 16 122 8.0 22.5 0.00 0.00 0.00 54 1015.3
20260510093005 16 42 11.3 20.9 0.00 0.00 0.00 56 1015.4
20260510092005 16 95 11.3 20.9 0.00 0.00 0.00 52 1015.6
20260510091005 16 127 11.3 19.3 0.00 0.00 0.00 54 1015.7
20260510090007 16 90 11.3 25.7 0.00 0.00 0.00 52 1015.9
20260510084007 16 87 11.3 24.1 0.00 0.00 0.00 54 1016.0
20260510082007 15 96 14.5 24.1 0.00 0.00 0.00 56 1016.1
20260510081005 15 70 12.9 25.7 0.00 0.00 0.00 57 1016.3
20260510080010 14 115 14.5 27.4 0.00 0.00 0.00 58 1016.6
20260510074007 13 106 17.7 33.8 0.00 0.00 0.00 60 1016.7
20260510073006 13 91 14.5 25.7 0.00 0.00 0.00 59 1016.8
20260510072007 13 85 12.9 24.1 0.00 0.00 0.00 60 1016.7
20260510071004 13 126 11.3 19.3 0.00 0.00 0.00 63 1016.8
20260510070009 12 111 9.7 19.3 0.00 0.00 0.00 65 1016.9
20260510065007 12 132 11.3 19.3 0.00 0.00 0.00 69 1017.0
20260510064006 11 117 16.1 24.1 0.00 0.00 0.00 70 1016.9
20260510063006 11 124 12.9 24.1 0.00 0.00 0.00 72 1017.0
20260510062007 11 82 11.3 19.3 0.00 0.00 0.00 78 1016.9
20260510061005 10 115 12.9 20.9 0.00 0.00 0.00 81 1016.8
20260510060009 10 84 11.3 24.1 0.00 0.00 0.00 83 1016.7
20260510055006 9 84 9.7 17.7 0.00 0.00 0.00 87 1016.7
20260510054007 8 113 8.0 16.1 0.00 0.00 0.00 90 1016.8
20260510053007 8 89 6.4 14.5 0.00 0.00 0.00 92 1017.0
20260510052004 7 95 4.8 14.5 0.00 0.00 0.00 94 1017.0
20260510051006 6 88 3.2 6.4 0.00 0.00 0.00 94 1017.3
20260510050010 6 88 1.6 6.4 0.00 0.00 0.00 94 1017.3
20260510045004 5 17 1.6 4.8 0.00 0.00 0.00 94 1017.4
20260510044006 4 16 0.0 1.6 0.00 0.00 0.00 94 1017.6
20260510042006 3 16 0.0 3.2 0.00 0.00 0.00 94 1017.6
20260510041007 2 16 0.0 0.0 0.00 0.00 0.00 94 1017.8
20260510035006 2 16 0.0 0.0 0.00 0.00 0.00 94 1017.8
20260510034008 2 16 0.0 3.2 0.00 0.00 0.00 94 1018.0
20260510033009 2 16 1.6 3.2 0.00 0.00 0.00 94 1017.9
20260510031007 2 16 1.6 3.2 0.00 0.00 0.00 94 1017.9
20260510030009 2 16 1.6 3.2 0.00 0.00 0.00 93 1018.0
20260510025006 1 16 1.6 3.2 0.00 0.00 0.00 93 1017.9
20260510023010 2 16 0.0 0.0 0.00 0.00 0.00 93 1017.9
20260510022006 3 16 1.6 3.2 0.00 0.00 0.00 93 1017.9
20260510020009 3 16 0.0 0.0 0.00 0.00 0.00 93 1018.0
20260510015006 3 16 0.0 0.0 0.00 0.00 0.00 93 1018.1
20260510014006 3 16 0.0 0.0 0.00 0.00 0.00 93 1018.1
20260510012006 3 16 0.0 1.6 0.00 0.00 0.00 92 1018.2
20260510011005 3 16 0.0 1.6 0.00 0.00 0.00 92 1018.1
20260510010008 3 16 0.0 3.2 0.00 0.00 0.00 92 1018.2
20260510005006 3 16 1.6 3.2 0.00 0.00 0.00 92 1018.3
20260510004006 3 16 1.6 3.2 0.00 0.00 0.00 92 1018.3
20260510003008 3 16 0.0 1.6 0.00 0.00 0.00 92 1018.4
20260510002009 3 16 1.6 3.2 0.00 0.00 0.00 92 1018.5
20260510001008 4 16 1.6 3.2 0.00 0.00 0.00 91 1018.6
20260510000011 4 16 0.0 0.0 0.00 0.00 0.00 91 1018.7
20260509235010 4 16 0.0 0.0 0.00 0.00 0.00 91 1018.7
20260509234007 4 16 0.0 0.0 0.00 0.00 0.00 91 1018.7
20260509232005 5 16 0.0 1.6 0.00 0.00 0.00 91 1018.9
20260509230008 5 16 0.0 0.0 0.00 0.00 0.00 90 1019.0
20260509224005 6 16 0.0 0.0 0.00 0.00 0.00 90 1019.1
20260509223005 6 16 0.0 0.0 0.00 0.00 0.00 90 1019.2
20260509222004 6 16 0.0 0.0 0.00 0.00 0.00 89 1019.2